YUNHAI 2 3

导读 | 星芒AI

YUNHAI 2 3 是中国发射的一颗遥感卫星,主要用于海洋环境监测和气象观测。该卫星具备高分辨率成像能力,能够提供精确的海洋温度、风速及海浪数据,服务于海洋资源开发、防灾减灾和气候变化研究。作为 YUNHAI 系列的一部分,它提升了中国在海洋遥感领域的技术水平和数据获取能力,为相关科研和应用提供了重要支持。

基本信息
目录编号:
43911
目录名称:
YUNHAI 2-1C
国际标识:
2018-112C
轨道中心:
EARTH
卫星名称:
YUNHAI 2 3
卫星全名:
--
卫星状态:
在轨 (已飞行2543 天)
发射日期:
2018-12-29 UTC
国别 :
中国 (CN)
星等 :
--
轨道信息
数据来源 国际轨道数据
星历时间: 2025-12-15T06:41:45+0800
19小时前
查看轨道信息
半长轴: 7173.564km
偏心率: 0.000097
轨道倾角: 50.013°
近地点辐角 209.935°
升交点赤经 49.410°
平近点角 150.151°
近地点: 794.733km
远地点: 796.125km
周期: 100.777分钟
每日圈数: 14.28895
详细信息
使用方式:
暂无
2D轨道图
3D轨道图
轨道高度分析图
轨道倾角分析图
轨道综合分析图
查看轨道综合分析图